Volver al catálogo

THORAD AGENA D DEB

ActivoSSO
NORAD 42531·DEBRIS·🇺🇸 United States

Lanzado Apr 8, 1970 desde Vandenberg Space Force Base

Loading…

Próximos Pases (próximas 24 horas)

TLE

ActualizadoSource: Space-Track

Época: Sep 14, 2026, 13:14 UTC

1 42531U 70025SM  26257.55165719  .00000168  00000-0  32905-3 0  9997
2 42531  99.7990  11.7840 0052956  59.9464   3.4800 13.50379395630879

Sigue THORAD AGENA D DEB en tiempo real con AllMySat

Download on the App Store